Location: Newark
(21.1200°N, 73.4000°E)
Time: 05:52:38
(UTC+00:00)

Explorer 11/Cluster Stage 4 - Pass Details

Date: 22 January 2020
Orbit: 467 x 1259 km, 28.8° (Epoch: 19 February)

Event Time Altitude Azimuth Distance (km) Brightness Sun altitude
Rises 12:36:17 0° 284° (WNW) 3,946 11.2 2.1°
Reaches altitude 10° 12:39:29 10° 291° (WNW) 2,873 10.3 1.4°
Maximum altitude 12:46:01 41° 360° (N) 1,291 7.6 0.0°
Drops below altitude 10° 12:51:19 10° 70° (ENE) 2,331 8.3 -1.2°
Enters shadow 12:53:18 - 77° (ENE) 2,998 8.9 -1.6°
Sets 12:53:41 0° 78° (ENE) 3,133 - -1.7°
